Erie, PA

6:45 AM EDT on July 26, 2017 (GMT -0400)
Erie International

Weather History for KERI - May, 2013

Change the Weather History Date:

Wednesday, May 15, 2013

  Actual Average Record
Temperature  
Mean Temperature 66 °F 57 °F  
Max Temperature 80 °F 66 °F 86 °F (1916)
Min Temperature 52 °F 48 °F 34 °F (1920)
Degree Days  
Heating Degree Days 0 9  
Month to date heating degree days 102 162  
Since 1 July heating degree days 5729 5981  
Cooling Degree Days 1 1  
Month to date cooling degree days 7 10  
Year to date cooling degree days 7 17  
Growing Degree Days 13 (Base 50)    
Moisture  
Dew Point 48 °F    
Average Humidity 58    
Maximum Humidity 75    
Minimum Humidity 41    
Precipitation  
Precipitation T in 0.11 in 1.57 in (2011)
Month to date precipitation 1.06 1.62  
Year to date precipitation 12.63 13.24  
Snow  
Snow 0.00 in 0.00 in - ()
Month to date snowfall 0.0 0.0  
Since 1 July snowfall 105.5 100.9  
Snow Depth 0.00 in    
Sea Level Pressure  
Sea Level Pressure 29.72 in    
Wind  
Wind Speed 13 mph (SSW)    
Max Wind Speed 28 mph    
Max Gust Speed 45 mph    
Visibility 10 miles    
Events      
T = Trace of Precipitation, MM = Missing Value Source: NWS Daily Summary

Daily Weather History Graph

Daily Weather History Graph

Search for Another Location

Airport or City:

Trip Planner

Search our weather history database for the weather conditions in past years. The results will help you decide how hot, cold, wet, or windy it might be!

Date:

Astronomy

May. 15, 2013 Rise Set
Actual Time 5:59 AM EDT 8:34 PM EDT
Civil Twilight 5:27 AM EDT 9:07 PM EDT
Nautical Twilight 4:47 AM EDT 9:47 PM EDT
Astronomical Twilight 4:02 AM EDT 10:32 PM EDT
Moon 10:34 AM EDT (5/15) 12:19 AM EDT (5/15)
Length of Visible Light 15h 39m
Length of Day
14h 35m
Waxing Crescent, 26% of the Moon is Illuminated
May 15
Waxing Crescent
May 18
First Quarter
May 25
Full
May 31
Last Quarter
Jun 8
New

Hourly Weather History & Observations

Time (EDT) Temp. Dew Point Humidity Pressure Visibility Wind Dir Wind Speed Gust Speed Precip Events Conditions
12:51 AM 52.0 °F 37.9 °F 59% 29.80 in 10.0 mi SSE 31.1 mph 36.8 mph N/A   Clear
1:51 AM 53.1 °F 37.9 °F 57% 29.81 in 10.0 mi SSE 18.4 mph 26.5 mph N/A   Clear
2:51 AM 54.0 °F 37.9 °F 55% 29.79 in 10.0 mi South 16.1 mph 27.6 mph N/A   Clear
3:51 AM 55.4 °F 39.2 °F 54% 29.75 in 10.0 mi SSE 18.4 mph 32.2 mph N/A   Mostly Cloudy
4:51 AM 54.0 °F 39.9 °F 59% 29.76 in 10.0 mi South 17.3 mph 31.1 mph 0.00 in   Mostly Cloudy
5:51 AM 55.9 °F 42.1 °F 60% 29.70 in 10.0 mi South 16.1 mph 24.2 mph N/A   Clear
6:51 AM 55.9 °F 45.0 °F 67% 29.69 in 10.0 mi South 16.1 mph 25.3 mph 0.00 in   Overcast
7:51 AM 60.1 °F 48.0 °F 64% 29.67 in 10.0 mi South 16.1 mph 24.2 mph N/A   Partly Cloudy
8:51 AM 66.0 °F 53.1 °F 63% 29.66 in 10.0 mi South 18.4 mph 27.6 mph N/A   Scattered Clouds
9:51 AM 71.1 °F 55.0 °F 57% 29.64 in 10.0 mi SSW 23.0 mph 29.9 mph N/A   Clear
10:51 AM 75.9 °F 57.0 °F 52% 29.64 in 10.0 mi SW 16.1 mph 29.9 mph N/A   Clear
11:51 AM 79.0 °F 57.0 °F 47% 29.65 in 10.0 mi WSW 13.8 mph 23.0 mph N/A   Clear
12:51 PM 77.0 °F 53.1 °F 43% 29.66 in 10.0 mi WSW 23.0 mph 44.9 mph N/A   Clear
1:51 PM 78.1 °F 54.0 °F 43% 29.68 in 10.0 mi West 20.7 mph 36.8 mph N/A   Clear
2:51 PM 75.9 °F 54.0 °F 46% 29.71 in 10.0 mi West 19.6 mph 34.5 mph N/A   Clear
3:51 PM 70.0 °F 53.1 °F 55% 29.73 in 10.0 mi WSW 13.8 mph 21.9 mph N/A   Clear
4:51 PM 71.1 °F 52.0 °F 51% 29.72 in 10.0 mi West 13.8 mph - N/A   Clear
5:51 PM 72.0 °F 48.0 °F 43% 29.72 in 10.0 mi West 8.1 mph - N/A   Clear
6:51 PM 72.0 °F 46.9 °F 41% 29.73 in 10.0 mi WSW 4.6 mph - N/A   Clear
7:51 PM 69.1 °F 48.0 °F 47% 29.74 in 10.0 mi WSW 3.5 mph - N/A   Clear
8:51 PM 64.0 °F 48.0 °F 56% 29.75 in 10.0 mi Calm Calm - N/A   Clear
9:51 PM 61.0 °F 48.9 °F 64% 29.76 in 10.0 mi Calm Calm - N/A   Clear
10:51 PM 59.0 °F 51.1 °F 75% 29.78 in 10.0 mi Calm Calm - N/A   Clear
11:51 PM 59.0 °F 51.1 °F 75% 29.75 in 10.0 mi South 6.9 mph - N/A   Clear